| time (UTC) | temp F | wind direction | speed knots | gust knots | rain 1hr in | rain 24hr in | rain mn in | humidity % | barometer mb |
| 20260509124911 | 54 | 166 | 3.5 | 8.7 | 0.00 | 0.00 | 0.00 | 58 | 997.3 |
| 20260509124411 | 53 | 176 | 2.6 | 6.1 | 0.00 | 0.00 | 0.00 | 58 | 997.5 |
| 20260509123912 | 53 | 179 | 4.3 | 7.0 | 0.00 | 0.00 | 0.00 | 58 | 997.5 |
| 20260509123414 | 53 | 193 | 2.6 | 5.2 | 0.00 | 0.00 | 0.00 | 58 | 997.5 |
| 20260509122913 | 52 | 167 | 2.6 | 7.8 | 0.00 | 0.00 | 0.00 | 58 | 997.5 |
| 20260509122413 | 52 | 204 | 2.6 | 7.8 | 0.00 | 0.00 | 0.00 | 58 | 997.5 |
| 20260509121912 | 52 | 162 | 3.5 | 6.1 | 0.00 | 0.00 | 0.00 | 57 | 997.4 |
| 20260509121412 | 52 | 158 | 2.6 | 7.0 | 0.00 | 0.00 | 0.00 | 57 | 997.6 |
| 20260509120414 | 51 | 186 | 3.5 | 7.8 | 0.00 | 0.00 | 0.00 | 56 | 997.7 |
| 20260509115914 | 51 | 155 | 4.3 | 7.8 | 0.00 | 0.00 | 0.00 | 55 | 997.7 |
| 20260509115412 | 51 | 173 | 3.5 | 6.1 | 0.00 | 0.00 | 0.00 | 55 | 997.8 |
| 20260509114914 | 51 | 159 | 4.3 | 7.0 | 0.00 | 0.00 | 0.00 | 54 | 997.9 |
| 20260509113914 | 51 | 168 | 4.3 | 6.1 | 0.00 | 0.00 | 0.00 | 53 | 997.8 |
| 20260509113413 | 51 | 171 | 3.5 | 6.1 | 0.00 | 0.00 | 0.00 | 54 | 997.8 |
| 20260509112912 | 50 | 165 | 3.5 | 6.1 | 0.00 | 0.00 | 0.00 | 54 | 997.9 |
| 20260509112413 | 50 | 173 | 2.6 | 6.1 | 0.00 | 0.00 | 0.00 | 54 | 998.0 |
| 20260509111912 | 50 | 173 | 4.3 | 8.7 | 0.00 | 0.00 | 0.00 | 55 | 998.2 |
| 20260509110912 | 49 | 167 | 3.5 | 6.1 | 0.00 | 0.00 | 0.00 | 55 | 998.2 |
| 20260509110414 | 49 | 188 | 3.5 | 6.1 | 0.00 | 0.00 | 0.00 | 55 | 998.2 |
| 20260509105912 | 49 | 177 | 3.5 | 7.0 | 0.00 | 0.00 | 0.00 | 55 | 998.4 |
| 20260509105413 | 49 | 171 | 2.6 | 5.2 | 0.00 | 0.00 | 0.00 | 55 | 998.4 |
| 20260509104413 | 49 | 176 | 3.5 | 7.0 | 0.00 | 0.00 | 0.00 | 55 | 998.5 |
| 20260509103912 | 49 | 175 | 3.5 | 7.8 | 0.00 | 0.00 | 0.00 | 55 | 998.4 |
| 20260509103414 | 49 | 172 | 3.5 | 8.7 | 0.00 | 0.00 | 0.00 | 55 | 998.4 |
| 20260509102914 | 48 | 179 | 2.6 | 7.0 | 0.00 | 0.00 | 0.00 | 55 | 998.5 |
| 20260509102413 | 48 | 170 | 4.3 | 6.1 | 0.00 | 0.00 | 0.00 | 55 | 998.7 |
| 20260509101911 | 48 | 172 | 3.5 | 7.0 | 0.00 | 0.00 | 0.00 | 55 | 998.8 |
| 20260509101413 | 48 | 185 | 3.5 | 6.1 | 0.00 | 0.00 | 0.00 | 55 | 998.8 |
| 20260509100912 | 48 | 166 | 4.3 | 7.0 | 0.00 | 0.00 | 0.00 | 55 | 999.0 |
| 20260509100413 | 49 | 170 | 2.6 | 7.8 | 0.00 | 0.00 | 0.00 | 55 | 999.1 |
| 20260509095911 | 49 | 169 | 2.6 | 7.8 | 0.00 | 0.00 | 0.00 | 55 | 999.1 |
| 20260509095413 | 49 | 165 | 3.5 | 7.8 | 0.00 | 0.00 | 0.00 | 55 | 999.2 |
| 20260509094914 | 49 | 174 | 2.6 | 7.0 | 0.00 | 0.00 | 0.00 | 55 | 999.2 |
| 20260509094414 | 49 | 168 | 3.5 | 6.1 | 0.00 | 0.00 | 0.00 | 55 | 999.3 |
| 20260509093912 | 49 | 170 | 2.6 | 6.1 | 0.00 | 0.00 | 0.00 | 55 | 999.3 |
| 20260509093413 | 49 | 166 | 3.5 | 6.1 | 0.00 | 0.00 | 0.00 | 54 | 999.4 |
| 20260509092911 | 49 | 168 | 2.6 | 7.0 | 0.00 | 0.00 | 0.00 | 54 | 999.5 |
| 20260509092414 | 49 | 173 | 4.3 | 8.7 | 0.00 | 0.00 | 0.00 | 54 | 999.6 |
| 20260509091911 | 49 | 164 | 2.6 | 7.0 | 0.00 | 0.00 | 0.00 | 54 | 999.5 |
| 20260509091413 | 49 | 164 | 3.5 | 8.7 | 0.00 | 0.00 | 0.00 | 54 | 999.7 |
| 20260509090912 | 49 | 168 | 4.3 | 7.0 | 0.00 | 0.00 | 0.00 | 55 | 999.8 |
| 20260509090415 | 49 | 168 | 4.3 | 7.0 | 0.00 | 0.00 | 0.00 | 55 | 999.8 |
| 20260509085914 | 49 | 188 | 3.5 | 7.0 | 0.00 | 0.00 | 0.00 | 56 | 999.9 |
| 20260509085412 | 49 | 165 | 3.5 | 7.0 | 0.00 | 0.00 | 0.00 | 56 | 999.9 |
| 20260509084413 | 48 | 174 | 3.5 | 7.0 | 0.00 | 0.00 | 0.00 | 56 | 1000.1 |
| 20260509083913 | 48 | 165 | 2.6 | 6.1 | 0.00 | 0.00 | 0.00 | 57 | 1000.1 |
| 20260509083413 | 48 | 168 | 4.3 | 6.1 | 0.00 | 0.00 | 0.00 | 58 | 1000.2 |
| 20260509082913 | 47 | 168 | 3.5 | 7.8 | 0.00 | 0.00 | 0.00 | 59 | 1000.2 |
| 20260509081912 | 47 | 174 | 1.7 | 6.1 | 0.00 | 0.00 | 0.00 | 62 | 1000.4 |
| 20260509081412 | 46 | 150 | 2.6 | 6.1 | 0.00 | 0.00 | 0.00 | 63 | 1000.5 |
| 20260509080913 | 46 | 161 | 2.6 | 4.3 | 0.00 | 0.00 | 0.00 | 64 | 1000.6 |
| 20260509080412 | 46 | 154 | 2.6 | 4.3 | 0.00 | 0.00 | 0.00 | 64 | 1000.7 |
| 20260509075913 | 46 | 159 | 1.7 | 2.6 | 0.00 | 0.00 | 0.00 | 64 | 1000.7 |
| 20260509075412 | 46 | 191 | 2.6 | 4.3 | 0.00 | 0.00 | 0.00 | 63 | 1000.8 |
| 20260509074912 | 46 | 162 | 1.7 | 5.2 | 0.00 | 0.00 | 0.00 | 64 | 1000.9 |
| 20260509074413 | 46 | 154 | 2.6 | 5.2 | 0.00 | 0.00 | 0.00 | 63 | 1001.0 |
| 20260509073412 | 45 | 151 | 3.5 | 6.1 | 0.00 | 0.00 | 0.00 | 63 | 1001.1 |
| 20260509072913 | 45 | 153 | 2.6 | 5.2 | 0.00 | 0.00 | 0.00 | 63 | 1001.3 |
| 20260509072413 | 46 | 149 | 1.7 | 2.6 | 0.00 | 0.00 | 0.00 | 63 | 1001.4 |
| 20260509071911 | 46 | 152 | 2.6 | 4.3 | 0.00 | 0.00 | 0.00 | 62 | 1001.6 |
| 20260509071413 | 46 | 158 | 3.5 | 5.2 | 0.00 | 0.00 | 0.00 | 62 | 1001.6 |
| 20260509070913 | 46 | 154 | 2.6 | 4.3 | 0.00 | 0.00 | 0.00 | 61 | 1001.6 |
| 20260509070413 | 46 | 137 | 2.6 | 5.2 | 0.00 | 0.00 | 0.00 | 61 | 1001.7 |
| 20260509065413 | 46 | 160 | 2.6 | 6.1 | 0.00 | 0.00 | 0.00 | 62 | 1001.9 |
| 20260509064911 | 46 | 157 | 3.5 | 7.0 | 0.00 | 0.00 | 0.00 | 61 | 1002.0 |
| 20260509063911 | 46 | 161 | 3.5 | 6.1 | 0.00 | 0.00 | 0.00 | 61 | 1002.2 |
| 20260509063415 | 46 | 153 | 2.6 | 7.0 | 0.00 | 0.00 | 0.00 | 61 | 1002.3 |
| 20260509062913 | 46 | 147 | 3.5 | 6.1 | 0.00 | 0.00 | 0.00 | 61 | 1002.4 |
| 20260509062413 | 46 | 151 | 2.6 | 7.0 | 0.00 | 0.00 | 0.00 | 61 | 1002.4 |
| 20260509061413 | 46 | 161 | 5.2 | 8.7 | 0.00 | 0.00 | 0.00 | 61 | 1002.6 |
| 20260509060912 | 46 | 149 | 2.6 | 6.1 | 0.00 | 0.00 | 0.00 | 62 | 1002.8 |
| 20260509060413 | 46 | 149 | 2.6 | 5.2 | 0.00 | 0.00 | 0.00 | 62 | 1002.8 |
| 20260509054912 | 46 | 148 | 2.6 | 5.2 | 0.00 | 0.00 | 0.00 | 61 | 1003.2 |
| 20260509054413 | 46 | 147 | 2.6 | 4.3 | 0.00 | 0.00 | 0.00 | 62 | 1003.3 |
| 20260509053912 | 46 | 142 | 4.3 | 6.1 | 0.00 | 0.00 | 0.00 | 62 | 1003.4 |
| 20260509053413 | 46 | 150 | 2.6 | 6.1 | 0.00 | 0.00 | 0.00 | 63 | 1003.5 |
| 20260509052913 | 46 | 133 | 2.6 | 5.2 | 0.00 | 0.00 | 0.00 | 62 | 1003.6 |
| 20260509052413 | 46 | 119 | 2.6 | 4.3 | 0.00 | 0.00 | 0.00 | 64 | 1003.7 |
| 20260509051911 | 46 | 104 | 2.6 | 6.1 | 0.00 | 0.00 | 0.00 | 63 | 1003.9 |
| 20260509051411 | 46 | 131 | 3.5 | 7.0 | 0.00 | 0.00 | 0.00 | 62 | 1003.9 |
| 20260509050913 | 47 | 122 | 1.7 | 4.3 | 0.00 | 0.00 | 0.00 | 63 | 1004.0 |
| 20260509050414 | 47 | 122 | 1.7 | 2.6 | 0.00 | 0.00 | 0.00 | 61 | 1004.1 |
| 20260509045911 | 47 | 103 | 1.7 | 5.2 | 0.00 | 0.00 | 0.00 | 59 | 1004.3 |
| 20260509045413 | 47 | 130 | 1.7 | 2.6 | 0.00 | 0.00 | 0.00 | 59 | 1004.3 |
| 20260509044913 | 47 | 76 | 1.7 | 2.6 | 0.00 | 0.00 | 0.00 | 58 | 1004.3 |
| 20260509044411 | 47 | 97 | 0.9 | 2.6 | 0.00 | 0.00 | 0.00 | 58 | 1004.4 |
| 20260509043913 | 47 | 105 | 2.6 | 6.1 | 0.00 | 0.00 | 0.00 | 58 | 1004.4 |
| 20260509043411 | 47 | 117 | 1.7 | 2.6 | 0.00 | 0.00 | 0.00 | 58 | 1004.5 |
| 20260509042911 | 47 | 138 | 1.7 | 4.3 | 0.00 | 0.00 | 0.00 | 57 | 1004.5 |
| 20260509042413 | 47 | 142 | 1.7 | 5.2 | 0.00 | 0.00 | 0.00 | 58 | 1004.5 |
| 20260509041911 | 47 | 149 | 1.7 | 6.1 | 0.00 | 0.00 | 0.00 | 58 | 1004.6 |
| 20260509041413 | 47 | 153 | 1.7 | 6.1 | 0.00 | 0.00 | 0.00 | 58 | 1004.5 |
| 20260509040912 | 47 | 132 | 1.7 | 7.0 | 0.00 | 0.00 | 0.00 | 58 | 1004.7 |
| 20260509040412 | 47 | 141 | 1.7 | 5.2 | 0.00 | 0.00 | 0.00 | 58 | 1004.8 |
| 20260509035913 | 47 | 182 | 1.7 | 4.3 | 0.00 | 0.00 | 0.00 | 57 | 1004.8 |
| 20260509034913 | 47 | 144 | 2.6 | 5.2 | 0.00 | 0.00 | 0.00 | 57 | 1004.9 |
| 20260509034414 | 47 | 156 | 2.6 | 7.0 | 0.00 | 0.00 | 0.00 | 57 | 1004.9 |
| 20260509033912 | 47 | 157 | 2.6 | 6.1 | 0.00 | 0.00 | 0.00 | 57 | 1004.9 |
| 20260509032913 | 47 | 137 | 2.6 | 6.1 | 0.00 | 0.00 | 0.00 | 57 | 1004.9 |
| 20260509031912 | 47 | 126 | 2.6 | 7.8 | 0.00 | 0.00 | 0.00 | 57 | 1005.1 |
| 20260509031413 | 47 | 160 | 4.3 | 7.8 | 0.00 | 0.00 | 0.00 | 57 | 1005.1 |
| 20260509030913 | 47 | 166 | 4.3 | 8.7 | 0.00 | 0.00 | 0.00 | 56 | 1005.1 |
| 20260509030412 | 47 | 154 | 3.5 | 7.8 | 0.00 | 0.00 | 0.00 | 56 | 1005.1 |
| 20260509025911 | 47 | 158 | 3.5 | 10.4 | 0.00 | 0.00 | 0.00 | 57 | 1005.2 |
| 20260509024911 | 47 | 157 | 3.5 | 6.1 | 0.00 | 0.00 | 0.00 | 57 | 1005.3 |
| 20260509024411 | 47 | 135 | 3.5 | 7.8 | 0.00 | 0.00 | 0.00 | 56 | 1005.4 |
| 20260509023913 | 47 | 151 | 3.5 | 6.1 | 0.00 | 0.00 | 0.00 | 56 | 1005.4 |
| 20260509023412 | 47 | 149 | 3.5 | 7.8 | 0.00 | 0.00 | 0.00 | 57 | 1005.4 |
| 20260509022913 | 46 | 149 | 4.3 | 7.0 | 0.00 | 0.00 | 0.00 | 57 | 1005.4 |
| 20260509022411 | 46 | 156 | 4.3 | 7.8 | 0.00 | 0.00 | 0.00 | 57 | 1005.5 |
| 20260509021913 | 46 | 137 | 2.6 | 6.1 | 0.00 | 0.00 | 0.00 | 58 | 1005.5 |
| 20260509021411 | 46 | 152 | 4.3 | 11.3 | 0.00 | 0.00 | 0.00 | 58 | 1005.5 |
| 20260509020911 | 46 | 145 | 4.3 | 8.7 | 0.00 | 0.00 | 0.00 | 58 | 1005.5 |
| 20260509015913 | 45 | 158 | 2.6 | 7.8 | 0.00 | 0.00 | 0.00 | 58 | 1005.6 |
| 20260509015411 | 45 | 178 | 3.5 | 6.1 | 0.00 | 0.00 | 0.00 | 59 | 1005.6 |
| 20260509014413 | 45 | 152 | 2.6 | 6.1 | 0.00 | 0.00 | 0.00 | 60 | 1005.6 |
| 20260509013911 | 45 | 156 | 2.6 | 5.2 | 0.00 | 0.00 | 0.00 | 60 | 1005.5 |
| 20260509013413 | 45 | 149 | 2.6 | 4.3 | 0.00 | 0.00 | 0.00 | 61 | 1005.6 |
| 20260509012913 | 45 | 133 | 2.6 | 4.3 | 0.00 | 0.00 | 0.00 | 61 | 1005.5 |
| 20260509010913 | 46 | 144 | 1.7 | 5.2 | 0.00 | 0.00 | 0.00 | 66 | 1005.4 |
| 20260509010412 | 46 | 154 | 1.7 | 2.6 | 0.00 | 0.00 | 0.00 | 66 | 1005.4 |
| 20260509005913 | 46 | 83 | 1.7 | 2.6 | 0.00 | 0.00 | 0.00 | 67 | 1005.4 |
| 20260509005413 | 46 | 151 | 0.9 | 2.6 | 0.00 | 0.00 | 0.00 | 66 | 1005.4 |
| 20260509004913 | 46 | 111 | 1.7 | 4.3 | 0.00 | 0.00 | 0.00 | 67 | 1005.4 |
| 20260509004412 | 47 | 118 | 1.7 | 2.6 | 0.00 | 0.00 | 0.00 | 66 | 1005.4 |
| 20260509003912 | 47 | 138 | 1.7 | 2.6 | 0.00 | 0.00 | 0.00 | 65 | 1005.5 |
| 20260509003411 | 47 | 140 | 1.7 | 2.6 | 0.00 | 0.00 | 0.00 | 66 | 1005.5 |
| 20260509002913 | 48 | 124 | 0.9 | 2.6 | 0.00 | 0.00 | 0.00 | 66 | 1005.5 |
| 20260509002413 | 48 | 96 | 1.7 | 5.2 | 0.00 | 0.00 | 0.00 | 66 | 1005.5 |
| 20260509001411 | 50 | 73 | 2.6 | 5.2 | 0.00 | 0.00 | 0.00 | 65 | 1005.5 |
| 20260509000913 | 50 | 52 | 1.7 | 2.6 | 0.00 | 0.00 | 0.00 | 58 | 1005.4 |
| 20260509000413 | 51 | 77 | 1.7 | 2.6 | 0.00 | 0.00 | 0.00 | 56 | 1005.5 |
| 20260508235913 | 51 | 68 | 1.7 | 2.6 | 0.00 | 0.00 | 0.00 | 55 | 1005.5 |
| 20260508235412 | 51 | 98 | 1.7 | 2.6 | 0.00 | 0.00 | 0.00 | 56 | 1005.4 |
| 20260508234413 | 51 | 67 | 0.9 | 2.6 | 0.00 | 0.00 | 0.00 | 58 | 1005.6 |
| 20260508233912 | 51 | 51 | 1.7 | 2.6 | 0.00 | 0.00 | 0.00 | 58 | 1005.5 |
| 20260508233412 | 51 | 72 | 1.7 | 2.6 | 0.00 | 0.00 | 0.00 | 56 | 1005.5 |
| 20260508232911 | 51 | 95 | 1.7 | 2.6 | 0.00 | 0.00 | 0.00 | 57 | 1005.6 |
| 20260508232412 | 51 | 84 | 0.9 | 2.6 | 0.00 | 0.00 | 0.00 | 55 | 1005.6 |
| 20260508231911 | 51 | 83 | 1.7 | 6.1 | 0.00 | 0.00 | 0.00 | 54 | 1005.6 |
| 20260508230912 | 51 | 59 | 1.7 | 7.0 | 0.00 | 0.00 | 0.00 | 53 | 1005.7 |
| 20260508225911 | 50 | 65 | 0.9 | 2.6 | 0.00 | 0.00 | 0.00 | 54 | 1005.8 |
| 20260508225412 | 50 | 95 | 2.6 | 4.3 | 0.00 | 0.00 | 0.00 | 55 | 1005.8 |
| 20260508224913 | 50 | 85 | 2.6 | 5.2 | 0.00 | 0.00 | 0.00 | 56 | 1005.8 |
| 20260508224413 | 50 | 74 | 1.7 | 4.3 | 0.00 | 0.00 | 0.00 | 54 | 1005.9 |
| 20260508223913 | 50 | 60 | 2.6 | 4.3 | 0.00 | 0.00 | 0.00 | 57 | 1005.9 |
| 20260508223412 | 50 | 77 | 0.9 | 4.3 | 0.00 | 0.00 | 0.00 | 56 | 1005.9 |
| 20260508222911 | 50 | 81 | 2.6 | 6.1 | 0.00 | 0.00 | 0.00 | 57 | 1006.1 |
| 20260508222413 | 49 | 77 | 2.6 | 6.1 | 0.00 | 0.00 | 0.00 | 55 | 1006.1 |
| 20260508221911 | 50 | 59 | 2.6 | 6.1 | 0.00 | 0.00 | 0.00 | 57 | 1006.1 |
| 20260508220412 | 50 | 38 | 2.6 | 4.3 | 0.00 | 0.00 | 0.00 | 54 | 1006.2 |
| 20260508215912 | 50 | 38 | 2.6 | 4.3 | 0.00 | 0.00 | 0.00 | 52 | 1006.2 |
| 20260508215413 | 50 | 36 | 3.5 | 6.1 | 0.00 | 0.00 | 0.00 | 53 | 1006.2 |
| 20260508214413 | 50 | 60 | 3.5 | 7.0 | 0.00 | 0.00 | 0.00 | 55 | 1006.3 |
| 20260508213912 | 50 | 66 | 2.6 | 6.1 | 0.00 | 0.00 | 0.00 | 54 | 1006.3 |
| 20260508213413 | 50 | 45 | 2.6 | 4.3 | 0.00 | 0.00 | 0.00 | 53 | 1006.3 |
| 20260508212911 | 50 | 33 | 2.6 | 5.2 | 0.00 | 0.00 | 0.00 | 55 | 1006.4 |
| 20260508212412 | 50 | 80 | 1.7 | 5.2 | 0.00 | 0.00 | 0.00 | 58 | 1006.3 |
| 20260508211413 | 50 | 37 | 2.6 | 8.7 | 0.00 | 0.00 | 0.00 | 54 | 1006.4 |
| 20260508210911 | 50 | 81 | 2.6 | 6.1 | 0.00 | 0.00 | 0.00 | 55 | 1006.5 |
| 20260508210413 | 50 | 54 | 3.5 | 6.1 | 0.00 | 0.00 | 0.00 | 55 | 1006.5 |
| 20260508205913 | 50 | 61 | 3.5 | 5.2 | 0.00 | 0.00 | 0.00 | 54 | 1006.6 |
| 20260508205413 | 49 | 45 | 3.5 | 6.1 | 0.00 | 0.00 | 0.00 | 56 | 1006.6 |
| 20260508204915 | 50 | 66 | 4.3 | 6.1 | 0.00 | 0.00 | 0.00 | 56 | 1006.6 |
| 20260508204410 | 50 | 65 | 3.5 | 7.0 | 0.00 | 0.00 | 0.00 | 58 | 1006.7 |
| 20260508203911 | 50 | 49 | 4.3 | 6.1 | 0.00 | 0.00 | 0.00 | 56 | 1006.6 |
| 20260508203412 | 50 | 67 | 4.3 | 7.0 | 0.00 | 0.00 | 0.00 | 57 | 1006.7 |
| 20260508202914 | 50 | 50 | 2.6 | 6.1 | 0.00 | 0.00 | 0.00 | 56 | 1006.7 |
| 20260508202413 | 50 | 51 | 4.3 | 7.0 | 0.00 | 0.00 | 0.00 | 56 | 1006.8 |
| 20260508201910 | 50 | 87 | 2.6 | 8.7 | 0.00 | 0.00 | 0.00 | 55 | 1006.8 |
| 20260508201411 | 50 | 65 | 3.5 | 7.8 | 0.00 | 0.00 | 0.00 | 58 | 1006.8 |
| 20260508200913 | 49 | 50 | 2.6 | 6.1 | 0.00 | 0.00 | 0.00 | 59 | 1007.0 |
| 20260508200411 | 49 | 54 | 3.5 | 6.1 | 0.00 | 0.00 | 0.00 | 58 | 1007.1 |
| 20260508195911 | 49 | 83 | 4.3 | 7.0 | 0.00 | 0.00 | 0.00 | 61 | 1007.0 |
| 20260508195413 | 49 | 71 | 4.3 | 8.7 | 0.00 | 0.00 | 0.00 | 64 | 1007.1 |
| 20260508194412 | 49 | 66 | 5.2 | 8.7 | 0.00 | 0.00 | 0.00 | 61 | 1007.1 |
| 20260508193913 | 49 | 61 | 4.3 | 7.8 | 0.00 | 0.00 | 0.00 | 63 | 1007.2 |
| 20260508193412 | 49 | 55 | 4.3 | 7.0 | 0.00 | 0.00 | 0.00 | 63 | 1007.3 |
| 20260508192913 | 48 | 108 | 3.5 | 8.7 | 0.00 | 0.00 | 0.00 | 64 | 1007.3 |
| 20260508192411 | 48 | 87 | 5.2 | 8.7 | 0.00 | 0.00 | 0.00 | 66 | 1007.4 |
| 20260508191411 | 48 | 62 | 4.3 | 7.0 | 0.00 | 0.00 | 0.00 | 67 | 1007.4 |
| 20260508190911 | 48 | 66 | 5.2 | 10.4 | 0.00 | 0.00 | 0.00 | 67 | 1007.5 |
| 20260508190413 | 48 | 85 | 4.3 | 10.4 | 0.00 | 0.00 | 0.00 | 68 | 1007.5 |
| 20260508185430 | 48 | 61 | 5.2 | 10.4 | 0.00 | 0.00 | 0.00 | 69 | 1007.5 |
| 20260508184912 | 48 | 74 | 2.6 | 7.8 | 0.00 | 0.00 | 0.00 | 69 | 1007.6 |
| 20260508183911 | 48 | 91 | 3.5 | 7.8 | 0.00 | 0.00 | 0.00 | 69 | 1007.7 |
| 20260508183414 | 48 | 61 | 4.3 | 7.0 | 0.00 | 0.00 | 0.00 | 67 | 1007.6 |
| 20260508182912 | 48 | 52 | 5.2 | 8.7 | 0.00 | 0.00 | 0.00 | 67 | 1007.6 |
| 20260508182413 | 47 | 73 | 4.3 | 7.8 | 0.00 | 0.00 | 0.00 | 68 | 1007.7 |
| 20260508181914 | 47 | 61 | 3.5 | 10.4 | 0.00 | 0.00 | 0.00 | 67 | 1007.7 |
| 20260508181411 | 47 | 48 | 4.3 | 8.7 | 0.00 | 0.00 | 0.00 | 68 | 1007.9 |
| 20260508180913 | 47 | 66 | 3.5 | 7.8 | 0.00 | 0.00 | 0.00 | 67 | 1007.9 |
| 20260508180413 | 47 | 70 | 2.6 | 7.0 | 0.00 | 0.00 | 0.00 | 69 | 1007.9 |
| 20260508175913 | 46 | 50 | 5.2 | 10.4 | 0.00 | 0.00 | 0.00 | 69 | 1007.9 |
| 20260508175412 | 47 | 54 | 4.3 | 7.0 | 0.00 | 0.00 | 0.00 | 67 | 1008.0 |
| 20260508174913 | 47 | 59 | 4.3 | 7.8 | 0.00 | 0.00 | 0.00 | 68 | 1008.1 |
| 20260508174412 | 46 | 81 | 2.6 | 6.1 | 0.00 | 0.00 | 0.00 | 69 | 1008.2 |
| 20260508173913 | 47 | 58 | 5.2 | 7.8 | 0.00 | 0.00 | 0.00 | 68 | 1008.2 |
| 20260508173413 | 47 | 54 | 4.3 | 7.8 | 0.00 | 0.00 | 0.00 | 71 | 1008.2 |
| 20260508172912 | 47 | 46 | 4.3 | 7.0 | 0.00 | 0.00 | 0.00 | 70 | 1008.4 |
| 20260508172412 | 46 | 53 | 3.5 | 6.1 | 0.00 | 0.00 | 0.00 | 72 | 1008.4 |
| 20260508171412 | 45 | 54 | 5.2 | 7.8 | 0.00 | 0.00 | 0.00 | 72 | 1008.5 |
| 20260508170910 | 46 | 38 | 4.3 | 7.8 | 0.00 | 0.00 | 0.00 | 72 | 1008.5 |
| 20260508170412 | 46 | 52 | 5.2 | 10.4 | 0.00 | 0.00 | 0.00 | 73 | 1008.5 |
| 20260508165411 | 46 | 48 | 4.3 | 7.8 | 0.00 | 0.00 | 0.00 | 73 | 1008.7 |
| 20260508164912 | 46 | 70 | 2.6 | 7.0 | 0.00 | 0.00 | 0.00 | 73 | 1008.8 |
| 20260508164412 | 46 | 54 | 4.3 | 8.7 | 0.00 | 0.00 | 0.00 | 74 | 1008.8 |
| 20260508163912 | 45 | 75 | 3.5 | 7.8 | 0.00 | 0.00 | 0.00 | 73 | 1008.9 |
| 20260508163413 | 46 | 56 | 5.2 | 7.8 | 0.00 | 0.00 | 0.00 | 71 | 1008.9 |
| 20260508162911 | 46 | 56 | 2.6 | 8.7 | 0.00 | 0.00 | 0.00 | 74 | 1008.9 |
| 20260508162412 | 46 | 73 | 3.5 | 7.8 | 0.00 | 0.00 | 0.00 | 75 | 1009.0 |
| 20260508161910 | 45 | 96 | 4.3 | 7.8 | 0.00 | 0.00 | 0.00 | 75 | 1009.0 |
| 20260508161414 | 45 | 61 | 1.7 | 6.1 | 0.00 | 0.00 | 0.00 | 77 | 1009.0 |
| 20260508160912 | 45 | 58 | 4.3 | 7.8 | 0.00 | 0.00 | 0.00 | 76 | 1009.0 |
| 20260508160412 | 45 | 65 | 4.3 | 7.0 | 0.00 | 0.00 | 0.00 | 76 | 1009.0 |
| 20260508155912 | 46 | 85 | 3.5 | 5.2 | 0.00 | 0.00 | 0.00 | 77 | 1009.0 |
| 20260508155411 | 46 | 51 | 2.6 | 5.2 | 0.00 | 0.00 | 0.00 | 76 | 1009.0 |
| 20260508154911 | 46 | 67 | 2.6 | 6.1 | 0.00 | 0.00 | 0.00 | 75 | 1009.0 |
| 20260508154411 | 46 | 54 | 2.6 | 6.1 | 0.00 | 0.00 | 0.00 | 74 | 1009.0 |
| 20260508153910 | 46 | 40 | 4.3 | 6.1 | 0.00 | 0.00 | 0.00 | 75 | 1009.1 |
| 20260508153413 | 46 | 23 | 2.6 | 4.3 | 0.00 | 0.00 | 0.00 | 75 | 1009.0 |
| 20260508152912 | 46 | 40 | 2.6 | 4.3 | 0.00 | 0.00 | 0.00 | 75 | 1009.2 |
| 20260508151412 | 46 | 52 | 1.7 | 2.6 | 0.00 | 0.00 | 0.00 | 75 | 1009.2 |
| 20260508150913 | 45 | 48 | 2.6 | 2.6 | 0.00 | 0.00 | 0.00 | 75 | 1009.2 |
| 20260508150413 | 45 | 72 | 2.6 | 4.3 | 0.00 | 0.00 | 0.00 | 74 | 1009.2 |
| 20260508145911 | 46 | 27 | 1.7 | 4.3 | 0.00 | 0.00 | 0.00 | 75 | 1009.3 |
| 20260508145410 | 46 | 47 | 1.7 | 2.6 | 0.00 | 0.00 | 0.00 | 75 | 1009.3 |
| 20260508144911 | 46 | 63 | 2.6 | 4.3 | 0.00 | 0.00 | 0.00 | 77 | 1009.3 |
| 20260508144411 | 46 | 5 | 1.7 | 2.6 | 0.00 | 0.00 | 0.00 | 77 | 1009.3 |
| 20260508143415 | 46 | 47 | 1.7 | 2.6 | 0.00 | 0.00 | 0.00 | 78 | 1009.3 |
| 20260508142911 | 46 | 7 | 1.7 | 2.6 | 0.00 | 0.00 | 0.00 | 78 | 1009.4 |
| 20260508142412 | 45 | 37 | 1.7 | 2.6 | 0.00 | 0.00 | 0.00 | 78 | 1009.4 |
| 20260508141912 | 45 | 357 | 2.6 | 4.3 | 0.00 | 0.00 | 0.00 | 77 | 1009.4 |
| 20260508141412 | 45 | 11 | 1.7 | 2.6 | 0.00 | 0.00 | 0.00 | 80 | 1009.5 |
| 20260508140911 | 45 | 8 | 1.7 | 2.6 | 0.00 | 0.00 | 0.00 | 79 | 1009.5 |
| 20260508140411 | 45 | 353 | 2.6 | 4.3 | 0.00 | 0.00 | 0.00 | 76 | 1009.5 |
| 20260508135912 | 45 | 0 | 2.6 | 5.2 | 0.00 | 0.00 | 0.00 | 75 | 1009.5 |
| 20260508135412 | 45 | 17 | 1.7 | 2.6 | 0.00 | 0.00 | 0.00 | 78 | 1009.5 |
| 20260508134911 | 44 | 12 | 2.6 | 6.1 | 0.00 | 0.00 | 0.00 | 78 | 1009.5 |
| 20260508133911 | 44 | 338 | 1.7 | 4.3 | 0.00 | 0.00 | 0.00 | 78 | 1009.7 |
| 20260508133411 | 44 | 308 | 0.9 | 4.3 | 0.00 | 0.00 | 0.00 | 78 | 1009.7 |
| 20260508132912 | 44 | 5 | 1.7 | 4.3 | 0.00 | 0.00 | 0.00 | 77 | 1009.7 |
| 20260508132412 | 44 | 1 | 1.7 | 2.6 | 0.00 | 0.00 | 0.00 | 76 | 1009.8 |
| 20260508131912 | 44 | 329 | 1.7 | 4.3 | 0.00 | 0.00 | 0.00 | 74 | 1009.8 |
| 20260508130412 | 43 | 324 | 1.7 | 5.2 | 0.00 | 0.00 | 0.00 | 75 | 1009.8 |
| 20260508125911 | 43 | 262 | 0.9 | 2.6 | 0.00 | 0.00 | 0.00 | 75 | 1009.8 |
| 20260508125412 | 43 | 356 | 1.7 | 2.6 | 0.00 | 0.00 | 0.00 | 75 | 1009.9 |